﻿TIME_UTC_SECONDS;TIME_UTC_STR;AIR_TEMP;TRACK_TEMP;HUMIDITY;PRESSURE;WIND_SPEED;WIND_DIRECTION;
1505424623;14/09/2017 21:30:23;34,3889;44,4444;45;988,521;6,3656;234;
1505424683;14/09/2017 21:31:23;34,4444;44,4444;44;988,521;4,24374;103;
1505424744;14/09/2017 21:32:24;34,4444;44,4444;44;988,521;3,1828;145;
1505424804;14/09/2017 21:33:24;34,5;44,4444;44;988,521;3,1828;123;
1505424864;14/09/2017 21:34:24;34,5556;44,4444;43;988,487;3,1828;92;
1505424924;14/09/2017 21:35:24;34,6111;44,4444;43;988,521;3,1828;135;
1505424984;14/09/2017 21:36:24;34,6111;44,4444;44;988,555;5,30467;227;
1505425044;14/09/2017 21:37:24;34,6111;44,4444;44;988,487;3,1828;141;
1505425104;14/09/2017 21:38:24;34,6667;44,4444;44;988,521;5,30467;180;
1505425164;14/09/2017 21:39:24;34,6667;44,4444;44;988,521;7,42654;145;
1505425224;14/09/2017 21:40:24;34,6667;44,4444;44;988,521;7,42654;96;
1505425284;14/09/2017 21:41:24;34,6111;44,4444;44;988,555;4,24374;157;
1505425344;14/09/2017 21:42:24;34,5556;44,4444;44;988,487;7,42654;109;
1505425405;14/09/2017 21:43:25;34,3889;44,4444;43;988,487;7,42654;136;
1505425465;14/09/2017 21:44:25;34,3889;44,4444;44;988,453;4,24374;162;
1505425525;14/09/2017 21:45:25;34,2778;44,4444;43;988,487;5,30467;153;
1505425585;14/09/2017 21:46:25;34,3333;44,4444;44;988,453;8,48747;105;
1505425645;14/09/2017 21:47:25;34,2778;44,4444;44;988,453;2,12187;163;
1505425705;14/09/2017 21:48:25;34,2778;44,4444;44;988,453;4,24374;105;
1505425765;14/09/2017 21:49:25;34,2222;44,4444;44;988,453;5,30467;121;
1505425825;14/09/2017 21:50:25;34,1667;44,4444;45;988,453;9,54841;117;
1505425885;14/09/2017 21:51:25;34,0556;44,4444;45;988,419;10,6093;115;
1505425945;14/09/2017 21:52:25;34;44,4444;45;988,487;4,24374;111;
1505426005;14/09/2017 21:53:25;33,9444;44,4444;45;988,419;3,1828;130;
1505426066;14/09/2017 21:54:26;34;44,4444;45;988,453;4,24374;107;
1505426126;14/09/2017 21:55:26;34,0556;44,4444;45;988,352;8,48747;119;
1505426186;14/09/2017 21:56:26;34,1111;44,4444;46;988,385;2,12187;130;
1505426246;14/09/2017 21:57:26;34,2222;44,4444;46;988,385;6,3656;84;
1505426306;14/09/2017 21:58:26;34,2778;44,4444;45;988,419;7,42654;122;
1505426366;14/09/2017 21:59:26;34,2778;44,4444;45;988,419;5,30467;121;
1505426426;14/09/2017 22:00:26;34,2222;44,4444;45;988,419;5,30467;119;
1505426486;14/09/2017 22:01:26;34,2222;44,4444;45;988,385;4,24374;157;
1505426546;14/09/2017 22:02:26;34,2778;44,4444;45;988,385;3,1828;360;
1505426606;14/09/2017 22:03:26;34,2778;44,4444;45;988,385;2,12187;209;
1505426666;14/09/2017 22:04:26;34,3333;44,4444;45;988,419;3,1828;119;
1505426727;14/09/2017 22:05:27;34,3889;44,4444;45;988,419;4,24374;178;
1505426787;14/09/2017 22:06:27;34,4444;44,4444;45;988,419;5,30467;140;
1505426847;14/09/2017 22:07:27;34,5;44,4444;45;988,453;5,30467;188;
1505426907;14/09/2017 22:08:27;34,5556;44,4444;45;988,453;5,30467;127;
1505426967;14/09/2017 22:09:27;34,5;44,4444;45;988,419;3,1828;121;
1505427027;14/09/2017 22:10:27;34,5;44,4444;44;988,487;3,1828;88;
1505427087;14/09/2017 22:11:27;34,3889;43,8889;45;988,453;5,30467;121;
1505427147;14/09/2017 22:12:27;34,3889;43,8889;45;988,453;1,06093;81;
1505427207;14/09/2017 22:13:27;34,3889;43,8889;45;988,487;6,3656;134;
1505427267;14/09/2017 22:14:27;34,3889;43,8889;45;988,453;4,24374;24;
1505427327;14/09/2017 22:15:27;34,4444;43,8889;45;988,453;5,30467;175;
1505427388;14/09/2017 22:16:28;34,4444;43,8889;45;988,487;4,24374;146;
1505427448;14/09/2017 22:17:28;34,4444;43,8889;45;988,521;2,12187;130;
1505427508;14/09/2017 22:18:28;34,3889;43,8889;45;988,521;5,30467;115;
1505427568;14/09/2017 22:19:28;34,3889;43,8889;46;988,487;4,24374;55;
1505427628;14/09/2017 22:20:28;34,4444;43,8889;46;988,487;4,24374;196;
1505427688;14/09/2017 22:21:28;34,4444;43,8889;46;988,487;9,54841;117;
1505427748;14/09/2017 22:22:28;34,3889;43,8889;46;988,487;6,3656;23;
1505427808;14/09/2017 22:23:28;34,2778;43,8889;46;988,487;6,3656;96;
1505427868;14/09/2017 22:24:28;34,2778;43,8889;46;988,521;5,30467;150;
1505427928;14/09/2017 22:25:28;34,2778;43,8889;45;988,487;2,12187;100;
1505427988;14/09/2017 22:26:28;34,2778;43,8889;45;988,487;4,24374;170;
1505428049;14/09/2017 22:27:29;34,3333;43,8889;45;988,487;3,1828;138;
1505428109;14/09/2017 22:28:29;34,3889;43,8889;45;988,453;5,30467;120;
1505428169;14/09/2017 22:29:29;34,4444;43,8889;44;988,487;4,24374;204;
1505428229;14/09/2017 22:30:29;34,4444;43,8889;45;988,453;3,1828;190;
1505428289;14/09/2017 22:31:29;34,5;43,8889;44;988,521;3,1828;184;
1505428349;14/09/2017 22:32:29;34,5;43,8889;44;988,453;6,3656;160;
1505428409;14/09/2017 22:33:29;34,5;43,8889;45;988,453;3,1828;112;
1505428469;14/09/2017 22:34:29;34,5556;43,8889;45;988,453;2,12187;100;
1505428529;14/09/2017 22:35:29;34,5556;43,8889;44;988,453;4,24374;223;
1505428589;14/09/2017 22:36:29;34,5556;43,8889;44;988,487;4,24374;184;
1505428649;14/09/2017 22:37:29;34,5556;43,8889;44;988,419;4,24374;57;
1505428710;14/09/2017 22:38:30;34,5556;43,8889;44;988,419;7,42654;117;
1505428770;14/09/2017 22:39:30;34,4444;43,8889;45;988,419;3,1828;112;
1505428830;14/09/2017 22:40:30;34,4444;43,8889;45;988,385;5,30467;96;
1505428890;14/09/2017 22:41:30;34,4444;43,8889;45;988,419;3,1828;155;
1505428950;14/09/2017 22:42:30;34,4444;43,8889;45;988,385;8,48747;107;
1505429010;14/09/2017 22:43:30;34,4444;43,8889;45;988,385;2,12187;184;
1505429070;14/09/2017 22:44:30;34,3889;43,8889;45;988,385;7,42654;110;
1505429130;14/09/2017 22:45:30;34,3333;43,8889;45;988,318;2,12187;134;
1505429190;14/09/2017 22:46:30;34,3333;43,8889;45;988,352;1,06093;146;
1505429250;14/09/2017 22:47:30;34,3333;43,8889;45;988,352;6,3656;127;
1505429311;14/09/2017 22:48:31;34,3333;43,8889;46;988,352;4,24374;131;
1505429371;14/09/2017 22:49:31;34,3333;43,8889;46;988,385;2,12187;76;
1505429431;14/09/2017 22:50:31;34,2778;43,8889;45;988,385;2,12187;160;
1505429491;14/09/2017 22:51:31;34,2778;43,8889;46;988,419;3,1828;98;
1505429551;14/09/2017 22:52:31;34,2222;43,8889;46;988,453;2,12187;179;
1505429611;14/09/2017 22:53:31;34,2778;43,8889;46;988,419;3,1828;119;
1505429671;14/09/2017 22:54:31;34,2222;43,8889;47;988,453;3,1828;110;
1505429731;14/09/2017 22:55:31;34,2778;43,8889;47;988,419;1,06093;118;
1505429791;14/09/2017 22:56:31;34,2222;43,8889;47;988,419;6,3656;92;
1505429851;14/09/2017 22:57:31;34,1667;43,8889;47;988,453;8,48747;140;
1505429911;14/09/2017 22:58:31;34,0556;43,8889;48;988,419;1,06093;125;
1505429972;14/09/2017 22:59:32;34;43,8889;47;988,487;3,1828;137;
